Theta_e
350 349 348 347 349 350 350 350 350 348 348 343 341 344 348 352 353 356 356 356 357 358 358 354 355 354 354 354 353 354 353 352 353 348 350 357 353 350 353 353 349 349 350 348 346 346 346 335 324 326 327 328 329 329 328 328 333 337 338 336 333 329 327 327 329 333 337 341 341 341 342 342 342 342 341 341 341 341 341 341 342 342 342 342 341 341 341 340 338 337 336 334 333 331 330 330 329
350 349 348 347 348 349 351 350 350 346 344 342 342 346 350 353 353 353 355 356 356 357 358 356 355 354 355 355 354 353 353 353 355 355 356 355 352 352 353 352 350 350 351 348 346 345 347 339 328 330 332 333 334 331 332 334 339 338 334 331 326 325 328 333 339 342 344 344 344 344 344 344 343 342 342 342 341 341 341 341 342 341 341 342 342 342 342 342 342 342 340 339 337 334 330 329 329
351 350 348 349 350 350 352 349 347 343 341 344 347 350 350 352 353 352 353 354 354 356 357 357 356 355 355 355 354 354 354 353 354 357 355 353 353 353 352 351 350 350 350 348 346 345 346 343 334 335 336 337 336 334 337 338 335 332 328 325 324 331 338 343 345 345 345 345 345 345 345 344 344 344 344 344 344 343 342 342 342 341 341 342 343 343 343 343 343 343 343 343 342 339 336 336 335
351 351 350 350 351 350 351 349 348 343 339 344 349 352 351 353 354 353 355 355 355 355 356 357 357 356 356 356 355 354 354 354 354 356 356 355 354 352 352 351 350 351 349 348 348 345 346 345 338 339 339 338 339 339 337 332 329 327 324 323 331 341 345 345 345 345 345 345 344 343 344 344 344 345 345 345 346 345 345 344 343 343 342 343 343 343 344 344 344 344 344 343 343 341 340 339 338
350 351 351 351 351 350 351 350 348 344 341 346 350 352 353 355 355 356 358 356 356 356 356 357 358 357 357 356 356 354 355 355 355 355 356 356 353 350 351 351 351 351 349 349 349 346 345 345 340 340 340 340 341 337 332 328 327 324 324 332 341 345 345 345 345 345 344 344 344 344 344 344 344 345 345 345 345 345 345 345 345 345 344 343 343 344 344 344 344 344 343 342 342 341 341 339 339
350 349 350 351 351 350 350 348 345 344 347 351 351 354 355 355 356 357 359 357 356 357 357 357 357 358 357 356 356 356 356 356 355 356 357 355 351 348 349 351 351 351 349 349 349 345 344 345 341 340 341 342 338 331 329 327 324 323 333 342 345 345 345 346 345 344 344 344 343 344 345 345 345 345 345 345 344 344 345 345 345 345 344 343 343 344 343 343 343 343 342 342 342 342 342 341 341
350 350 348 349 350 350 349 346 345 345 350 352 351 354 355 356 356 356 358 357 357 356 358 357 357 358 356 355 355 356 355 356 357 357 357 354 351 347 347 350 351 351 348 348 348 342 341 343 340 342 343 339 332 329 329 325 323 332 342 345 344 345 345 345 344 344 344 344 344 344 344 344 344 345 345 345 345 345 345 344 344 345 344 344 343 343 342 342 343 342 342 343 343 343 344 344 345
350 350 349 350 350 350 349 346 347 348 351 353 351 353 354 357 357 356 357 357 357 356 358 357 357 357 356 355 355 356 355 355 356 357 355 353 351 346 346 351 352 350 348 346 344 340 341 342 341 342 339 332 329 330 326 324 331 341 344 345 345 345 345 344 343 343 343 344 344 344 343 344 344 345 345 344 344 345 345 345 344 344 344 343 343 343 343 343 343 343 343 344 344 345 345 346 346
349 349 350 350 351 350 348 347 349 351 353 353 353 354 354 356 357 356 356 357 357 355 358 358 357 357 355 355 356 356 355 355 355 356 355 353 352 346 348 352 351 350 349 346 342 342 342 342 341 338 333 330 330 329 325 331 341 345 345 346 346 345 344 343 342 343 343 344 344 343 344 344 344 345 345 345 344 345 345 344 344 344 344 343 343 343 344 344 344 344 344 345 345 345 346 346 346
350 349 349 349 350 348 345 346 348 351 353 353 354 355 355 355 357 357 356 357 357 356 358 358 357 357 355 355 356 356 355 355 355 355 355 354 352 348 350 352 351 351 350 346 341 341 343 341 338 332 330 330 330 330 331 340 346 346 345 346 346 345 343 342 343 343 343 344 344 344 344 344 345 345 344 344 344 344 344 344 344 344 344 344 344 344 344 345 344 345 345 345 346 346 347 347 347
349 348 349 349 346 343 342 344 348 352 354 354 355 355 355 356 357 357 356 357 357 357 357 357 357 357 356 356 357 356 355 355 355 355 355 354 352 350 351 351 352 351 350 347 340 339 341 338 333 329 329 331 336 337 338 345 347 346 346 346 346 344 342 342 343 343 343 344 344 345 345 345 345 345 345 344 344 344 343 344 345 345 345 344 344 344 344 344 345 345 346 346 347 347 347 347 347
347 347 349 347 344 342 343 346 349 353 353 354 354 355 356 356 356 357 357 357 357 358 358 356 356 356 356 356 357 355 354 355 355 355 354 353 351 351 351 351 352 351 350 348 343 341 337 332 329 329 331 336 343 341 342 346 346 346 346 345 345 343 343 343 343 343 343 344 345 345 345 345 345 346 346 345 343 342 341 342 343 344 345 344 344 345 345 345 346 347 347 347 347 347 347 347 346
348 348 349 347 347 347 347 348 351 352 351 352 352 356 357 356 356 357 357 356 357 358 357 356 356 357 355 356 356 354 354 355 355 354 353 352 351 350 351 351 352 351 350 348 347 344 334 327 327 332 336 342 346 342 344 347 346 346 344 343 343 343 343 343 344 344 344 344 344 344 345 345 345 344 343 343 341 341 340 340 342 344 345 345 345 345 345 346 346 346 346 346 346 346 347 347 347
348 350 350 349 349 349 349 347 349 348 347 351 354 357 356 355 357 357 357 356 357 357 357 357 356 356 356 356 355 354 355 354 354 353 353 352 351 350 350 351 351 351 350 348 348 344 336 330 331 335 339 344 347 344 345 346 346 346 342 343 343 343 344 344 344 344 344 343 341 341 343 343 342 340 339 339 339 340 340 340 342 344 345 345 345 345 344 345 345 345 346 346 346 347 346 347 347
349 350 350 351 349 349 350 348 349 348 346 350 354 355 354 354 355 356 357 356 356 357 358 358 356 356 355 354 353 353 354 354 354 353 352 351 350 350 351 351 350 350 350 348 346 344 341 339 339 336 340 347 347 345 346 346 346 345 343 344 344 344 344 344 345 345 345 342 337 338 340 339 339 338 338 337 338 339 340 341 342 343 344 344 344 344 343 344 345 344 345 346 346 346 346 346 346
347 348 351 353 350 349 350 350 351 349 349 351 353 354 353 354 354 355 357 356 356 356 357 357 356 355 353 354 354 353 354 353 353 353 352 350 349 350 351 350 350 349 349 347 345 344 343 345 344 340 342 348 348 347 347 347 346 345 345 345 345 345 345 345 346 346 345 341 336 335 335 335 338 338 338 337 336 338 339 341 341 342 343 343 343 343 344 344 344 345 345 346 346 345 345 345 345
346 348 352 351 349 349 349 351 351 349 351 353 354 354 352 354 354 355 357 355 355 355 356 356 355 354 353 355 354 352 354 353 352 352 351 350 349 350 350 350 349 349 348 347 345 345 344 346 346 342 345 349 349 348 347 348 346 345 346 346 346 345 346 346 346 345 345 342 335 330 330 335 342 341 340 340 337 336 338 339 340 341 341 341 342 343 344 345 345 345 345 345 345 344 344 344 345
348 350 351 349 348 350 351 352 351 351 352 353 354 354 352 353 354 355 356 354 354 355 356 355 353 355 355 355 352 352 353 352 352 351 350 350 349 350 350 349 349 349 348 347 345 345 345 347 345 342 347 349 349 348 347 348 346 345 347 346 346 346 347 346 346 346 345 344 335 330 335 342 347 342 339 341 337 336 336 337 339 339 341 341 342 343 344 344 344 344 343 344 343 343 343 344 346
350 351 350 349 350 351 352 353 352 353 353 354 354 353 353 353 355 356 356 355 355 355 355 355 355 356 355 353 351 351 351 351 351 350 349 349 349 350 350 349 349 348 348 347 346 346 346 347 345 345 348 348 349 348 346 349 347 347 349 348 348 348 348 346 347 346 342 342 337 335 339 340 346 345 339 338 336 336 336 337 338 338 340 341 342 343 343 343 344 343 343 343 342 342 343 345 348
351 351 351 352 351 352 353 354 353 353 353 355 354 353 354 354 355 357 356 355 355 355 355 355 355 355 354 352 352 351 350 350 350 349 348 348 349 349 349 348 348 348 347 347 346 346 347 346 345 346 347 347 348 347 346 349 349 349 350 350 349 349 348 346 345 343 340 342 338 336 339 334 337 342 338 336 337 338 339 339 338 338 339 340 341 341 342 343 342 342 342 341 343 346 345 348 350
352 351 351 353 352 351 353 353 353 354 353 353 354 354 354 355 355 356 355 355 355 356 355 354 354 354 353 352 352 351 350 349 349 349 348 348 349 348 348 348 347 347 347 346 345 346 347 345 344 346 345 344 346 346 347 349 350 350 350 350 349 348 348 346 345 342 339 339 338 341 344 335 329 333 333 335 337 338 341 340 341 342 339 340 340 340 343 342 341 343 345 344 346 348 347 349 349
353 353 353 354 352 351 353 354 354 354 353 353 353 353 354 355 355 355 355 355 355 355 355 355 355 354 353 352 352 351 350 350 349 349 349 349 349 348 348 347 346 347 347 346 345 346 346 344 345 347 345 343 343 345 348 348 350 351 350 349 347 346 346 346 344 341 339 339 342 346 345 336 330 330 328 330 333 334 336 337 342 343 339 341 342 342 346 345 344 348 349 347 348 348 348 349 346
353 353 353 355 353 353 354 354 353 353 352 353 353 353 354 355 354 355 355 355 355 355 355 356 356 354 353 353 352 351 351 350 350 350 349 349 349 349 348 346 346 345 345 346 346 345 345 345 345 347 347 344 342 345 347 347 347 349 349 345 344 345 342 342 342 342 343 341 342 345 342 341 341 338 333 328 329 331 334 337 340 340 340 346 347 348 350 349 349 350 350 349 349 351 351 351 349
354 353 353 355 354 354 354 353 353 352 351 351 351 353 354 354 353 355 355 354 354 354 355 356 355 354 353 353 353 352 351 350 350 349 349 349 348 347 346 344 343 344 343 343 345 343 343 345 344 346 349 347 345 345 346 346 344 345 347 342 341 342 340 343 345 345 344 339 339 339 339 345 348 347 343 336 335 339 341 341 342 343 347 352 352 351 353 352 351 352 351 351 351 350 350 350 349
354 353 354 356 355 354 353 352 351 350 350 350 351 352 353 353 353 354 355 353 353 353 354 356 355 353 353 353 353 353 352 350 350 349 348 347 346 344 342 341 341 342 340 341 343 343 343 344 342 344 348 349 348 348 348 348 345 345 347 345 343 339 338 344 346 343 340 338 339 339 338 344 349 349 347 346 346 346 344 343 346 350 351 352 352 352 353 352 351 350 349 349 349 349 349 349 348
354 353 354 356 355 355 354 352 352 351 350 350 351 353 353 353 353 353 353 352 352 353 352 354 354 353 354 352 351 352 351 349 349 350 349 347 345 343 341 339 340 339 339 340 342 343 343 342 340 342 346 347 347 348 348 348 347 346 346 345 342 335 334 339 339 339 341 342 342 339 338 341 347 349 348 348 348 347 345 346 349 352 351 350 351 352 350 350 349 348 347 346 346 347 347 347 346
352 353 355 356 356 356 354 353 353 353 351 351 351 353 354 353 354 354 352 352 353 353 352 353 353 353 353 352 350 350 349 347 345 346 347 346 345 343 341 339 339 338 338 340 341 343 342 341 341 341 342 341 342 345 342 340 340 339 339 338 336 332 333 335 335 338 342 345 343 338 338 338 341 346 348 348 348 349 348 349 351 352 351 351 351 350 349 348 347 345 345 344 343 344 344 344 343
353 354 355 356 355 357 355 353 355 354 351 351 350 352 353 352 355 355 353 352 353 353 352 352 351 351 351 351 350 347 346 344 342 342 342 343 344 342 340 339 339 338 338 340 341 342 341 341 343 339 337 333 334 339 334 330 332 330 331 333 333 332 332 333 334 336 340 343 340 334 337 339 338 341 343 345 347 348 350 351 351 351 350 350 349 348 348 345 342 343 343 342 343 342 342 341 341
353 354 354 356 357 356 356 355 355 354 351 350 349 350 352 354 354 353 353 353 354 353 352 351 350 350 350 349 347 348 346 344 342 341 340 341 341 340 338 339 339 338 339 340 341 342 341 341 342 338 335 331 330 332 330 328 330 329 330 330 330 330 330 331 333 335 337 339 337 333 336 337 337 339 340 341 343 345 349 350 350 350 348 347 347 346 345 341 340 342 342 341 342 341 340 340 340
353 354 352 354 353 353 356 356 355 354 352 352 352 350 350 355 354 352 354 353 354 353 351 351 350 350 351 349 347 349 349 347 346 343 341 341 341 339 339 339 340 340 340 341 341 342 341 340 339 337 333 330 329 329 329 328 328 328 329 328 328 326 326 327 329 332 333 335 336 333 333 334 334 337 339 339 340 343 347 348 348 348 346 346 344 342 342 342 342 342 340 339 339 338 338 338 339
351 351 351 351 345 347 355 355 355 354 351 354 356 350 349 354 354 353 354 354 354 353 351 350 350 350 351 350 348 349 350 349 347 345 344 344 343 342 341 341 341 342 341 341 341 340 341 338 335 335 332 329 329 327 327 327 327 327 327 326 326 323 323 323 327 331 330 332 334 332 331 331 331 333 336 338 339 343 346 347 346 345 345 345 344 342 341 342 342 340 338 337 336 336 337 337 338
350 343 342 345 341 348 357 354 355 354 351 355 356 350 349 353 354 354 354 354 355 355 352 350 350 351 350 350 349 349 349 349 348 347 346 345 345 344 343 343 341 343 342 340 341 340 340 337 332 333 331 327 328 327 326 326 325 325 325 325 324 323 322 322 326 332 335 335 334 335 332 330 331 331 333 336 338 343 347 347 346 345 345 345 344 344 343 342 342 340 340 338 336 337 339 339 339
348 342 337 340 339 346 354 353 354 355 352 353 354 353 351 350 353 354 353 354 356 355 355 351 350 350 350 350 349 348 347 348 348 348 347 346 346 345 345 344 342 343 342 340 340 340 341 338 332 334 333 328 327 327 325 324 324 323 323 323 322 322 321 323 326 328 333 336 336 338 334 330 330 330 331 333 334 341 347 347 346 346 346 347 347 347 345 345 344 343 342 341 340 341 342 342 341
342 342 337 340 340 342 347 353 355 353 353 352 351 354 352 349 351 354 354 354 355 356 356 353 349 350 349 350 349 349 348 348 349 349 348 348 347 347 346 346 344 343 342 340 340 339 340 339 334 334 336 333 328 327 325 324 324 322 322 321 321 322 320 325 330 331 331 332 336 336 331 328 328 327 329 329 329 336 343 347 348 348 348 348 348 348 347 346 346 345 343 343 343 344 344 344 343
339 339 338 339 340 340 342 349 353 352 354 353 351 351 351 350 350 353 354 355 356 356 356 353 350 349 349 349 349 349 349 348 349 349 349 349 348 348 347 347 346 344 342 340 341 340 339 341 338 333 335 337 331 327 326 324 324 323 321 321 321 321 321 324 329 333 334 334 339 337 327 325 326 324 325 326 326 331 341 347 349 349 349 349 349 348 348 347 346 345 344 344 345 346 347 347 345
343 342 341 337 337 338 340 348 350 351 354 354 353 350 349 351 350 352 354 356 357 357 356 353 350 349 350 349 348 349 349 347 347 348 349 349 348 348 348 349 349 348 346 342 341 340 338 340 340 333 330 335 332 327 326 325 325 323 321 322 323 323 322 324 326 331 335 338 341 339 329 324 325 324 324 325 326 331 340 346 348 349 350 350 349 349 348 348 348 347 346 345 345 347 350 351 349
345 345 342 339 337 337 342 350 349 349 351 352 352 350 348 350 350 350 353 355 357 357 356 354 351 349 350 349 349 349 349 348 346 346 347 348 348 348 349 349 349 349 348 347 344 341 339 339 339 334 328 332 332 328 326 326 326 323 322 325 330 332 327 324 326 329 333 337 335 332 328 324 325 326 326 326 328 332 336 341 344 345 348 349 348 348 348 347 347 347 347 346 346 348 349 350 351
345 344 340 338 337 338 345 351 348 348 351 351 351 351 350 349 349 350 352 352 354 356 355 355 352 350 349 349 349 348 348 347 346 346 346 347 347 348 349 349 348 348 348 348 347 344 343 341 341 337 331 330 330 328 327 326 325 323 325 330 335 340 338 331 331 334 338 341 335 325 323 323 324 325 326 328 330 333 336 339 343 344 345 347 346 346 346 345 345 345 346 347 348 348 350 351 352
344 343 338 335 334 340 347 352 350 348 350 352 352 352 351 350 349 349 351 352 353 355 355 354 353 351 350 350 348 348 347 346 346 346 346 347 347 347 348 348 347 348 348 347 347 347 346 346 346 342 336 331 328 328 327 326 326 323 326 333 335 340 345 339 335 337 338 341 339 332 328 327 328 329 330 331 332 334 336 338 343 346 348 348 347 347 348 348 348 347 347 348 348 348 349 351 353
343 340 334 332 335 337 338 348 355 349 350 353 353 352 351 350 349 349 351 352 353 353 354 355 353 351 350 350 348 346 346 346 346 345 345 345 346 347 347 348 347 346 347 347 347 347 347 348 346 340 336 333 329 328 327 327 327 324 323 326 326 330 337 335 328 329 331 333 336 336 335 335 335 336 336 336 337 338 338 338 341 346 349 350 349 350 350 349 349 351 351 350 350 350 349 351 353
340 340 334 332 336 335 337 348 354 351 350 352 353 350 350 352 350 350 352 352 352 352 354 354 354 352 350 348 348 347 345 346 346 345 345 344 345 347 347 347 347 346 346 346 346 347 347 348 345 338 335 334 333 331 329 329 328 326 323 322 322 322 325 327 324 328 334 336 338 340 342 342 340 340 340 339 341 341 341 340 341 344 348 350 350 351 351 350 350 352 352 351 352 351 351 352 353
336 339 337 334 336 338 343 350 350 346 344 349 350 341 341 349 351 350 350 351 351 352 353 354 354 354 351 349 348 347 346 345 346 344 344 344 344 346 347 347 346 345 345 345 345 345 346 348 345 340 338 338 338 337 333 332 330 327 325 321 322 322 321 323 326 333 341 344 344 346 347 347 344 343 343 342 343 343 342 342 342 343 347 350 351 351 351 351 351 352 351 352 352 352 353 354 354
332 336 338 337 337 339 344 348 344 337 339 348 349 338 334 340 347 350 350 352 352 351 351 353 354 354 353 352 349 347 347 345 345 345 344 344 345 345 345 346 345 344 345 344 344 345 345 347 347 342 340 340 341 341 338 336 332 328 326 323 324 326 325 326 327 333 342 346 346 348 349 348 346 345 346 345 345 345 344 344 344 344 346 349 351 351 352 352 352 352 351 352 353 353 355 355 354
332 336 338 337 339 340 343 345 341 337 339 345 348 343 335 332 340 349 349 352 354 352 351 351 353 355 353 353 351 349 347 346 345 345 344 344 344 345 345 344 345 344 344 344 344 345 344 346 347 343 340 341 341 342 340 338 335 331 328 326 325 327 330 336 338 337 338 342 343 343 344 347 346 344 345 347 347 347 347 346 346 345 346 349 351 352 353 352 352 352 352 353 353 353 354 354 354
335 337 337 339 342 341 342 342 339 340 339 336 341 344 336 330 338 350 350 350 352 353 353 352 352 355 354 353 353 351 349 347 346 345 345 345 344 345 344 344 344 344 343 344 344 344 344 346 346 342 340 340 340 341 340 339 338 336 332 328 326 325 328 336 343 343 338 336 337 337 339 341 345 344 342 344 347 347 348 348 348 347 347 348 351 352 352 353 353 352 353 354 354 354 354 354 355
337 336 335 338 341 342 343 341 337 338 336 332 335 339 334 329 334 346 348 346 348 351 352 352 352 353 354 354 353 352 351 349 347 345 345 346 345 344 344 344 344 344 343 343 343 343 344 345 345 342 338 339 339 339 340 339 338 338 336 332 329 328 328 330 337 340 336 334 335 336 336 336 340 343 341 339 342 345 347 348 348 348 349 350 352 352 352 353 352 352 352 353 354 355 355 355 355
335 335 335 335 338 342 343 341 338 336 334 331 331 337 336 329 330 339 346 345 345 347 348 349 352 353 354 354 353 352 352 351 349 347 346 346 346 345 344 344 344 344 343 343 343 343 343 344 345 343 339 338 339 338 337 338 338 338 337 336 333 333 333 333 334 336 335 335 335 335 336 336 337 342 342 339 338 340 343 346 348 350 352 352 353 353 353 352 352 351 351 352 353 354 354 355 355
334 335 334 331 332 336 337 338 338 333 331 330 331 337 336 328 329 337 345 344 343 344 346 348 350 352 353 354 353 352 352 352 351 349 347 346 346 346 345 345 344 344 344 344 343 343 343 343 345 344 340 337 338 337 336 337 337 337 337 337 337 336 336 336 335 335 335 335 335 334 335 336 336 340 343 342 341 340 340 343 346 349 351 352 352 352 352 352 351 350 350 351 352 353 353 352 353
334 333 331 327 327 329 330 331 331 328 327 330 333 335 334 330 333 340 343 343 343 343 345 348 350 352 353 353 353 353 352 352 352 350 348 347 347 347 346 345 346 345 345 345 344 343 343 343 345 344 340 337 337 338 338 338 337 337 337 337 337 338 338 337 336 336 336 335 336 335 335 336 336 336 339 343 345 344 344 346 347 348 350 352 350 349 349 350 350 350 350 350 350 352 353 349 347
335 331 328 326 326 328 328 327 327 326 326 330 335 336 332 329 334 342 342 342 344 344 345 348 350 351 352 352 353 352 353 352 352 351 349 348 348 348 348 347 347 347 346 345 345 344 343 343 344 344 340 337 338 340 340 340 339 338 337 337 337 337 337 337 337 336 336 336 336 336 337 339 341 341 342 345 347 347 348 350 351 350 350 351 348 344 344 345 347 349 349 351 351 352 354 350 346
334 334 332 328 326 328 329 327 325 327 325 327 334 334 328 326 333 341 340 342 344 344 345 347 349 351 351 352 352 352 353 353 352 351 350 349 349 348 349 348 348 348 347 346 345 345 345 344 344 342 340 339 339 340 341 341 340 339 338 338 337 338 337 337 337 336 336 336 336 337 338 339 342 345 346 347 346 345 347 350 352 353 352 352 349 344 343 345 347 345 344 347 347 348 351 350 347
333 335 332 328 329 331 329 327 327 327 325 326 330 330 330 332 338 340 340 342 341 342 346 346 348 350 351 351 351 351 352 352 352 352 351 350 350 349 349 349 348 349 348 347 346 346 346 345 345 342 341 340 339 339 340 341 341 340 339 339 338 338 337 336 336 335 335 335 334 337 338 338 340 342 343 343 342 342 344 348 351 353 353 353 351 345 342 346 349 345 339 337 337 339 344 344 346
333 331 328 331 335 333 328 327 329 327 324 327 327 325 330 333 334 338 341 341 341 342 345 347 347 350 350 350 350 350 351 352 352 352 352 351 351 350 350 348 348 348 348 348 347 346 346 346 346 344 342 342 341 340 339 340 341 340 339 339 338 338 337 336 335 335 336 336 336 338 338 338 339 341 341 342 343 343 343 346 349 352 352 354 354 349 344 343 345 343 337 334 333 336 341 343 345
333 330 331 334 336 334 330 327 328 327 325 327 325 322 324 325 327 336 340 340 341 342 343 346 348 349 351 350 349 349 350 351 351 352 352 352 351 351 351 349 348 347 347 347 347 346 346 347 346 344 344 344 343 341 338 340 341 339 338 337 336 335 335 334 335 336 337 337 338 340 340 340 340 341 341 342 344 346 346 345 346 347 348 349 350 350 349 348 347 344 339 337 336 337 343 346 346
334 335 336 333 329 329 330 327 326 328 327 324 322 322 322 321 325 331 335 338 341 343 343 345 347 349 350 349 350 350 350 351 351 351 352 352 352 352 351 350 349 348 348 347 347 346 346 347 346 344 344 345 343 341 339 340 340 338 336 336 335 334 335 335 337 339 340 340 340 341 341 342 341 342 343 343 344 345 347 348 347 345 344 344 346 348 352 353 352 348 344 345 345 343 344 347 348
333 334 335 333 330 329 330 328 326 327 328 325 322 321 322 325 330 331 335 337 340 343 344 344 346 348 348 348 350 351 351 351 351 351 352 352 353 352 352 351 350 349 349 348 347 347 347 347 346 344 345 345 343 341 339 340 340 338 337 336 335 335 335 336 339 342 342 343 343 343 344 344 345 344 344 345 345 345 347 348 348 348 347 347 349 349 350 352 351 348 347 350 352 352 351 350 350
331 329 329 330 330 330 330 329 326 327 328 327 326 322 322 329 334 334 336 337 339 343 344 345 346 346 346 346 349 352 353 352 351 351 351 352 352 351 351 351 350 350 350 349 349 348 347 348 348 346 345 344 342 340 339 340 340 339 338 337 337 337 337 338 340 341 343 344 343 345 348 348 347 346 345 346 345 344 346 347 348 352 352 351 351 349 346 346 348 349 352 353 353 353 354 352 349
332 331 330 330 332 330 326 325 326 325 325 327 328 324 323 332 337 336 337 338 340 342 344 344 344 345 347 347 350 354 355 353 352 351 350 351 352 350 350 351 350 350 350 349 349 349 348 349 348 345 344 343 341 340 340 341 340 339 340 339 338 338 338 339 339 340 342 344 346 348 349 348 346 346 346 346 345 346 349 349 349 350 351 353 352 349 346 346 348 350 351 349 346 346 349 350 347
Wind_Speed
17 20 23 21 15 9 8 7 4 4 4 5 4 2 3 2 1 2 3 3 2 3 4 2 3 5 4 1 2 1 1 0 4 2 3 4 8 15 18 19 24 27 25 25 26 26 27 27 26 23 21 20 18 17 15 13 11 10 10 9 8 7 7 6 6 7 7 8 8 8 9 8 8 8 8 8 8 7 7 7 7 7 7 6 6 6 7 6 6 6 6 7 8 8 9 8 8
16 19 21 17 14 9 7 6 4 4 5 5 4 3 5 4 4 3 1 2 2 4 3 3 4 6 3 2 2 4 3 3 8 10 7 7 13 15 17 21 25 27 25 25 27 27 25 26 26 23 22 20 19 16 13 12 12 11 10 8 7 7 7 8 9 10 10 9 9 9 9 9 8 9 9 9 8 8 7 7 7 7 7 7 6 6 6 6 6 6 5 5 5 6 7 7 7
15 18 18 15 11 6 3 5 5 2 5 5 3 4 6 5 4 2 1 1 2 2 3 4 5 5 5 4 5 5 3 5 7 11 9 11 15 16 19 22 25 26 25 25 27 27 25 25 26 24 22 20 17 15 13 12 12 10 9 8 8 8 9 10 10 10 10 10 10 9 9 9 9 9 10 10 10 9 9 9 8 7 7 7 7 7 7 6 6 6 5 4 4 4 5 6 5
15 16 15 13 9 5 2 4 4 3 5 3 2 3 4 3 4 4 4 3 2 4 3 5 5 4 6 3 3 4 4 6 6 6 8 10 12 19 22 24 26 24 24 25 26 26 24 24 25 24 21 18 15 14 13 12 10 9 8 9 9 10 10 10 10 10 10 10 9 9 9 8 8 9 9 9 9 9 9 9 9 8 8 7 6 6 6 6 5 5 4 4 4 4 4 4 3
15 15 14 12 7 3 2 4 3 5 4 1 1 3 4 3 5 6 6 5 5 6 5 6 4 4 5 2 3 2 4 6 6 4 8 9 13 23 25 26 26 24 24 25 25 24 23 24 25 22 19 17 14 13 12 11 9 9 9 10 10 11 11 10 10 9 9 9 9 9 9 8 8 8 8 8 8 8 8 7 8 8 7 6 6 6 5 5 5 4 4 3 3 3 3 3 2
13 14 15 11 5 3 3 4 4 6 3 2 0 5 4 4 6 6 6 4 4 4 6 7 4 5 6 4 4 1 5 4 6 6 8 9 17 25 27 27 25 24 25 25 24 23 22 23 23 20 18 16 14 13 11 10 9 10 11 11 11 11 11 10 9 9 9 9 9 9 8 8 7 8 8 7 7 7 7 6 6 7 6 5 5 5 5 5 4 4 4 3 2 2 2 1 1
10 11 12 9 5 4 5 5 5 5 2 1 2 3 4 4 4 3 3 3 2 3 6 7 6 5 4 7 6 3 4 3 5 7 7 11 21 27 28 27 24 24 24 25 24 22 21 22 22 19 17 15 14 12 11 10 11 12 12 12 12 11 11 10 9 9 9 9 9 9 8 8 8 8 7 7 7 7 6 6 6 5 5 5 5 5 4 5 4 4 4 3 2 2 1 1 1
9 8 7 6 4 5 6 6 5 5 2 2 3 1 2 3 4 3 3 3 2 3 7 7 9 7 3 6 6 6 4 4 5 7 9 14 23 27 28 26 24 24 23 25 24 21 21 21 21 18 16 15 13 12 11 11 12 12 12 12 11 11 10 10 10 10 10 9 9 9 9 8 7 7 7 7 7 7 6 6 6 5 5 4 4 4 4 4 4 3 3 2 1 1 1 1 1
9 6 5 5 4 5 6 6 5 5 3 2 3 3 3 4 5 5 4 3 2 3 7 8 11 7 5 6 5 7 5 4 6 9 12 18 24 27 27 25 24 24 22 24 24 20 20 21 20 18 17 15 13 11 12 13 13 13 13 12 11 10 10 11 10 10 10 10 10 9 9 9 8 7 7 7 7 7 6 6 6 6 5 5 5 5 4 3 3 3 3 2 2 1 1 1 1
9 6 4 4 5 6 7 6 4 3 4 4 4 5 5 5 6 7 6 4 3 4 6 9 9 6 7 8 6 7 5 6 8 11 15 20 24 26 26 25 24 23 22 23 23 20 19 20 19 18 17 14 12 12 13 14 13 13 13 12 12 11 10 11 11 11 11 10 10 10 9 8 8 8 7 7 6 6 6 7 6 6 6 5 5 5 5 4 3 3 2 2 2 1 1 0 1
8 7 5 5 5 7 6 4 4 2 2 3 5 6 6 6 7 7 7 6 4 5 7 9 8 7 7 7 6 6 6 8 10 14 17 20 24 25 24 24 23 22 21 20 22 20 19 19 19 18 16 14 12 12 15 15 13 13 13 12 11 10 10 10 10 10 10 10 9 9 9 8 8 8 7 7 7 7 7 7 7 6 6 6 5 5 4 4 3 3 2 2 2 2 1 0 0
7 5 5 6 5 6 5 4 4 3 4 6 6 5 4 6 7 8 8 6 6 6 9 10 8 9 7 6 7 7 8 9 12 16 19 21 23 23 23 24 22 21 20 19 20 19 18 19 19 17 15 14 13 14 15 15 14 13 12 12 11 10 10 9 9 9 8 9 9 9 9 9 8 8 8 8 7 8 8 8 8 7 6 6 5 5 4 4 3 3 3 3 2 2 2 1 0
8 4 5 5 5 5 5 6 5 5 6 5 4 1 2 6 7 8 7 6 8 6 10 12 8 9 6 6 8 9 10 11 13 17 20 21 22 22 23 23 22 20 20 19 18 18 18 18 18 16 14 14 13 14 15 15 14 13 12 12 11 11 10 9 8 8 8 8 8 9 9 9 9 9 9 9 8 8 8 8 8 7 6 6 6 5 5 4 4 4 4 4 3 3 2 0 1
8 5 4 4 5 5 6 6 5 6 5 1 1 2 2 4 5 6 7 7 8 7 9 12 9 8 6 6 8 11 12 13 15 18 20 21 22 22 22 22 21 20 20 19 17 17 18 17 17 15 13 13 13 14 14 14 13 12 11 11 11 10 9 8 8 7 7 7 7 8 9 9 9 9 9 9 9 8 8 8 7 7 7 7 6 6 6 6 5 6 5 5 4 2 1 1 1
6 6 3 4 5 5 5 5 6 7 4 2 2 2 3 4 4 5 7 7 6 8 8 11 9 6 6 7 8 14 15 16 18 19 21 22 21 21 22 22 20 20 19 18 17 17 17 16 15 14 13 13 13 13 13 13 13 12 11 11 10 9 8 8 8 7 6 6 6 7 7 7 7 8 8 8 8 8 8 8 8 7 7 7 7 7 7 7 7 7 6 4 3 2 1 0 1
6 4 2 3 5 4 3 4 5 6 3 3 1 1 5 5 6 6 4 4 6 10 9 10 9 2 4 7 9 17 18 19 19 21 23 23 21 21 21 21 20 20 18 17 16 16 16 15 15 14 13 13 13 13 12 12 12 12 12 10 9 8 8 8 7 7 5 5 5 6 6 5 4 5 6 7 8 8 9 8 8 8 7 7 7 7 7 7 7 5 4 2 1 0 1 2 3
4 1 2 3 4 4 2 3 4 5 5 4 2 4 7 5 6 5 4 5 8 12 9 9 9 2 3 8 15 21 20 20 21 23 25 23 22 21 21 21 20 19 17 17 16 15 15 15 15 14 14 13 14 13 12 12 12 12 11 10 8 7 7 7 7 5 4 4 4 5 5 4 4 5 5 6 8 8 8 8 8 8 8 7 7 7 7 6 5 3 1 0 2 3 5 5 4
4 2 3 3 3 3 4 5 6 7 8 7 6 7 9 6 6 6 7 9 11 13 10 9 9 5 9 15 20 22 20 21 22 24 25 23 22 22 21 20 19 18 17 17 16 15 15 14 15 14 14 14 14 13 13 12 12 12 11 9 8 7 7 6 6 5 4 4 3 4 5 5 5 5 6 6 7 8 8 8 8 8 8 8 7 6 5 4 2 1 1 3 5 6 7 6 4
5 3 4 3 2 5 6 8 9 8 9 10 10 8 9 6 6 9 9 11 14 13 10 11 12 12 15 19 22 22 22 22 23 24 24 23 22 22 21 20 19 17 17 17 16 16 15 14 15 14 14 15 14 14 14 13 12 12 10 9 8 8 7 6 5 5 5 5 4 5 6 7 6 6 7 7 7 7 7 6 6 7 6 6 6 4 3 2 1 2 4 5 7 7 7 5 4
4 4 4 2 4 6 6 8 10 10 10 11 10 7 7 5 7 9 9 12 14 12 12 14 15 17 19 20 22 23 23 22 22 23 22 22 21 21 21 20 20 18 18 17 17 16 15 15 14 14 15 15 15 15 15 13 13 12 10 9 8 7 7 6 6 6 6 7 7 7 6 7 7 7 7 7 6 5 5 5 4 4 4 4 3 3 2 1 2 3 4 5 5 5 5 4 3
2 3 5 6 6 6 4 7 10 10 10 11 9 6 6 6 8 8 11 12 11 11 14 16 17 20 22 22 23 23 23 23 22 22 21 21 21 20 20 20 19 18 17 17 16 16 15 15 14 15 16 16 16 15 15 14 13 12 11 10 8 8 7 7 6 6 7 8 7 5 4 6 7 7 8 7 7 6 5 4 4 3 3 2 2 1 1 2 3 3 3 4 4 5 5 4 4
3 6 7 7 7 7 5 7 9 8 9 9 8 6 5 9 8 10 15 11 8 12 14 14 17 21 23 24 23 23 23 23 22 21 21 21 21 19 19 18 18 17 17 16 16 16 15 15 14 14 16 17 17 15 15 15 14 12 10 10 9 8 8 7 7 7 8 8 6 5 6 6 6 6 7 7 7 7 6 5 4 4 2 2 1 1 1 1 1 2 3 4 5 6 6 6 7
4 4 6 6 6 6 6 6 6 7 8 5 5 4 7 11 8 11 14 9 9 13 12 13 17 19 22 23 23 23 23 22 21 21 21 21 20 19 19 18 18 17 18 16 15 16 15 15 14 14 14 16 17 16 14 14 14 12 11 11 11 10 10 9 8 7 7 6 6 6 7 5 4 5 5 6 7 6 5 5 5 4 3 2 2 2 2 1 1 1 3 4 5 6 6 7 7
6 5 4 4 4 4 5 5 5 6 5 1 3 5 9 11 10 10 10 10 11 12 11 14 17 18 20 20 21 21 22 21 20 20 20 20 19 18 18 18 17 17 17 16 15 15 15 15 15 15 14 14 16 16 14 13 14 12 11 12 11 11 10 9 7 7 6 6 5 6 7 6 5 5 5 5 5 6 6 6 5 5 4 4 4 3 2 2 1 2 3 4 5 5 5 6 6
8 6 5 2 3 3 4 3 4 6 4 3 4 6 8 11 13 11 10 13 13 11 13 16 17 18 19 18 19 19 19 19 19 19 18 17 18 17 17 17 16 16 17 16 15 14 15 15 15 15 15 14 13 13 13 11 11 11 10 10 10 10 9 8 8 7 6 6 6 6 7 7 6 6 6 5 6 7 8 8 7 5 5 5 4 2 2 2 2 3 4 4 5 5 5 5 5
3 6 5 3 3 1 2 1 3 4 3 3 5 5 7 13 15 8 9 16 14 12 15 17 18 19 17 17 18 19 19 19 19 19 18 17 17 18 17 16 16 15 16 16 15 14 15 15 15 15 15 15 13 13 13 12 11 11 10 10 10 9 9 8 8 8 7 6 6 7 8 8 8 6 6 7 8 8 8 8 7 5 5 4 3 3 3 3 3 4 4 5 5 5 5 5 6
5 7 5 4 3 0 1 1 3 2 2 2 3 4 7 11 9 4 10 17 14 13 16 17 18 18 17 16 16 17 18 18 19 19 18 17 17 18 17 16 15 15 15 15 15 14 15 15 15 15 16 15 14 13 13 13 12 11 11 11 10 9 9 9 8 8 8 8 7 8 8 9 10 8 8 9 8 8 7 6 6 5 4 4 4 4 4 4 4 4 5 5 5 5 6 6 7
7 6 4 4 3 2 3 2 3 3 3 2 3 2 6 8 6 7 15 17 14 14 16 16 17 17 17 17 16 15 16 17 17 18 18 18 18 18 17 17 16 15 15 15 15 15 15 15 15 15 16 15 15 14 13 12 11 11 10 10 10 10 9 9 9 9 9 9 9 9 9 9 10 11 10 10 10 9 7 6 6 5 5 5 5 5 5 7 6 6 6 6 6 7 7 8 8
7 6 5 4 4 3 4 3 3 3 2 3 4 2 5 4 6 14 16 15 14 14 15 16 16 16 16 17 16 15 15 16 16 17 17 17 17 17 17 17 16 16 15 15 15 15 15 16 16 16 16 16 15 14 13 12 12 11 11 11 10 10 10 10 10 10 10 10 9 9 10 10 10 11 12 12 11 10 7 7 7 6 6 6 6 6 7 7 7 7 7 8 8 8 9 9 9
6 5 4 2 3 2 4 4 3 4 3 3 3 3 5 3 8 15 15 13 14 13 14 14 15 16 16 16 16 15 15 16 15 15 16 16 15 16 17 16 17 16 15 15 16 16 16 16 17 16 17 16 15 15 14 14 13 12 12 11 10 10 10 10 10 10 10 10 10 10 11 10 11 12 12 12 11 9 8 7 7 6 6 7 7 7 7 7 8 8 8 9 9 9 10 9 9
5 3 2 2 1 4 4 5 5 3 2 3 4 2 5 5 9 13 13 13 13 13 14 14 14 15 16 16 16 16 15 15 15 15 15 15 14 15 16 16 17 16 15 16 16 16 16 17 18 17 17 16 15 15 15 14 13 12 12 12 11 11 11 11 10 10 10 10 11 11 11 11 11 12 12 12 11 9 7 6 7 6 7 7 8 8 8 8 9 10 9 10 10 10 10 10 10
5 4 1 4 5 5 5 5 4 3 1 3 4 2 4 4 8 12 13 13 12 12 13 14 15 15 16 17 16 16 16 15 14 14 15 15 14 14 15 16 17 16 16 16 16 17 16 17 18 17 17 16 15 15 14 14 13 13 13 13 12 12 12 11 11 10 10 10 11 12 13 12 12 13 13 12 11 9 7 7 7 7 8 8 8 9 10 10 10 10 10 10 10 10 11 11 11
2 3 5 7 7 5 6 3 4 5 3 1 2 1 1 3 8 12 12 13 12 11 12 14 15 16 17 17 17 17 16 15 15 14 14 15 14 14 14 15 16 16 16 16 17 17 17 17 17 17 16 16 15 14 14 14 13 13 13 13 13 13 13 12 11 11 11 11 11 12 14 14 13 14 14 13 12 10 9 8 8 7 8 8 9 10 11 11 11 11 10 10 10 10 11 12 12
2 4 5 6 7 5 4 2 4 4 2 2 1 2 1 3 8 12 12 13 13 11 12 15 16 16 17 17 17 16 16 16 16 15 15 15 14 14 14 14 15 16 16 16 17 17 17 16 17 17 16 15 15 14 14 14 13 13 13 13 13 13 13 13 12 12 12 12 12 14 16 14 14 15 15 15 13 12 10 9 9 9 9 10 10 11 11 12 12 11 11 10 10 10 11 11 11
6 6 6 5 6 6 5 5 7 7 4 3 4 5 4 4 8 11 12 12 12 11 12 15 16 16 16 17 17 16 16 16 16 16 16 15 15 15 14 14 14 15 15 16 16 16 16 16 16 17 17 16 15 15 15 14 14 14 13 13 14 14 14 14 14 13 13 13 12 15 16 15 15 15 15 15 14 13 12 10 10 10 10 10 10 10 10 11 11 12 12 11 10 10 10 9 9
10 9 7 6 5 5 7 7 9 10 7 6 7 7 7 7 9 11 13 12 11 10 10 13 15 16 17 17 17 17 17 17 17 17 17 16 16 15 15 14 14 14 14 15 16 16 16 16 17 18 17 16 16 17 16 15 15 14 14 14 15 15 14 14 15 14 14 13 13 15 16 15 16 16 15 16 16 15 13 12 12 11 10 10 10 9 9 9 10 11 11 12 11 10 10 9 8
10 9 7 6 5 5 6 7 10 10 7 7 9 8 8 8 9 11 14 14 12 11 11 13 15 16 17 17 17 18 17 17 17 17 17 17 17 16 16 15 15 15 14 15 15 16 17 17 17 18 18 18 18 18 17 16 16 16 15 15 14 13 14 14 15 15 14 14 15 16 15 15 16 16 16 16 16 16 15 14 14 12 11 11 11 10 10 11 11 11 11 12 12 11 10 9 9
9 8 6 4 4 5 5 5 10 11 6 5 8 9 8 8 9 11 14 14 13 13 13 14 16 16 16 17 17 18 17 17 17 17 18 18 18 17 16 16 16 16 15 15 16 16 16 16 17 18 19 20 20 19 18 17 16 16 15 13 13 11 12 13 13 13 13 13 14 14 14 14 15 15 16 16 17 17 17 16 15 14 12 13 12 12 13 14 14 13 12 12 11 11 10 10 9
8 6 5 3 4 4 4 5 8 10 5 3 7 8 8 9 10 11 14 13 13 14 14 15 16 17 17 17 18 18 19 18 18 18 18 18 18 18 17 17 17 17 16 17 17 17 17 17 17 17 18 20 20 20 19 18 17 16 15 13 13 11 10 12 13 12 13 12 13 13 12 13 14 14 15 16 17 17 17 17 16 14 13 14 14 13 14 14 15 13 12 12 11 11 11 10 9
5 4 4 4 6 5 2 3 6 9 5 3 6 6 5 7 9 11 14 15 13 14 14 15 16 17 18 18 19 20 20 19 19 19 19 19 19 19 18 18 17 18 17 17 18 17 18 18 18 18 18 19 20 20 20 19 18 17 16 15 16 14 12 14 14 13 13 13 12 12 11 11 12 13 15 15 16 17 17 17 16 14 14 14 14 14 13 13 13 12 10 11 12 11 11 10 9
3 3 5 6 7 7 4 3 6 8 7 6 5 3 4 7 9 10 12 15 14 14 16 16 17 18 18 19 20 20 20 20 20 20 20 20 20 20 19 19 18 18 18 18 18 18 18 18 19 18 18 18 19 20 19 19 20 19 17 17 17 17 16 16 15 13 13 12 11 10 10 11 10 11 13 14 15 16 17 17 16 16 15 15 14 13 13 12 11 11 11 11 12 12 12 11 10
3 2 6 9 9 7 4 4 5 5 5 7 8 3 2 8 10 10 10 13 14 15 16 17 18 19 19 20 20 21 21 21 21 21 20 20 20 19 20 20 19 19 19 19 18 19 19 18 18 18 17 17 18 19 18 17 20 20 19 19 19 19 18 18 17 14 12 11 9 9 9 10 9 9 11 12 13 14 16 16 16 15 14 14 14 14 13 12 12 12 12 12 12 12 12 11 11
3 4 8 11 9 6 2 3 4 2 1 5 8 4 1 7 10 12 12 13 15 16 16 18 20 20 21 22 22 22 22 22 22 22 21 21 20 20 21 21 21 20 20 19 18 19 19 18 18 18 18 17 17 18 17 17 19 20 20 20 20 20 20 19 19 16 13 11 10 10 10 10 11 10 11 12 13 13 15 15 15 15 14 14 14 14 13 13 13 13 12 12 12 11 12 13 12
2 7 9 11 10 6 1 3 4 2 2 4 7 5 3 3 8 12 14 14 15 16 16 17 20 22 23 23 23 23 23 23 24 24 23 23 22 22 22 22 21 21 20 20 19 19 19 19 19 18 18 17 17 18 17 16 18 20 20 21 21 22 21 19 18 17 17 15 14 14 13 12 13 13 13 13 13 14 14 15 16 15 15 14 14 14 14 13 13 13 12 12 13 13 14 15 14
3 8 9 8 8 6 1 4 4 1 3 3 6 6 5 2 6 9 12 14 14 17 18 17 20 24 24 24 24 24 24 24 24 24 24 24 24 24 23 22 22 21 21 21 20 20 19 19 19 19 18 16 16 17 17 16 17 18 19 21 22 23 23 21 17 18 20 19 18 19 18 16 16 17 17 15 14 15 15 15 16 16 15 15 14 14 14 14 14 14 13 14 15 15 15 15 15
4 6 8 6 5 5 3 5 3 2 4 2 4 6 5 2 7 7 9 11 12 15 15 16 21 25 25 25 25 25 25 24 24 24 24 25 25 24 24 23 22 22 22 22 21 20 19 19 19 20 19 17 17 17 17 17 17 18 19 20 22 23 23 23 21 21 22 22 20 19 19 19 18 19 20 18 16 17 16 16 16 16 16 15 15 15 15 15 15 15 15 15 16 16 15 15 16
7 6 6 7 5 3 3 3 3 4 4 2 3 4 5 2 5 6 6 8 10 11 13 16 20 25 26 25 25 25 25 25 25 25 25 25 25 25 24 24 23 23 23 22 22 21 20 19 19 21 20 18 18 18 18 19 18 19 20 21 22 23 23 24 24 24 24 23 22 20 20 21 20 20 20 20 19 18 19 18 17 16 15 15 15 15 15 15 15 15 15 15 16 17 17 16 16
6 5 4 6 4 3 3 3 3 4 2 3 2 3 5 4 3 5 5 6 7 8 12 16 19 24 27 26 26 26 25 25 25 25 25 25 26 26 26 26 25 25 24 23 23 22 21 20 19 21 22 20 19 18 18 19 19 20 21 21 23 23 24 24 25 24 25 25 24 23 23 23 23 21 20 20 20 19 19 20 18 16 16 16 16 16 16 16 15 15 15 15 16 17 18 18 18
6 5 3 4 3 2 3 3 3 2 3 3 1 2 4 5 1 1 4 6 6 6 8 14 19 24 26 27 26 26 25 25 25 25 25 25 26 27 27 27 26 26 25 25 24 22 22 21 20 21 23 20 18 17 17 17 17 18 19 20 21 23 24 25 25 25 25 25 25 25 25 24 23 22 20 19 18 18 18 19 20 18 18 18 19 18 18 18 17 16 16 16 17 17 19 20 20
7 4 2 3 3 3 3 2 1 1 3 3 1 2 4 4 3 3 3 4 5 7 8 11 18 24 26 27 26 26 26 26 25 26 25 25 26 26 27 27 27 26 26 25 24 23 22 20 20 21 22 20 18 17 16 16 17 17 18 19 20 22 23 24 24 24 24 25 26 25 25 23 21 20 18 17 16 16 16 17 19 20 19 21 22 21 20 21 21 19 18 18 19 19 20 21 21
5 2 1 3 3 4 3 1 2 3 2 1 1 2 3 1 4 5 5 5 5 7 10 10 15 21 24 26 26 26 26 26 25 25 25 25 25 26 26 27 27 26 25 25 25 24 23 20 21 23 22 21 20 18 18 18 17 17 18 19 20 21 23 24 24 23 23 24 24 24 23 22 20 18 17 16 17 17 17 17 19 20 20 21 24 24 21 21 22 22 20 20 21 20 21 22 22
4 3 3 3 3 4 5 5 4 5 5 2 1 2 2 2 2 3 5 6 5 8 12 12 13 18 23 24 26 26 26 26 25 25 25 25 25 25 25 26 26 26 25 25 24 24 24 22 23 25 23 21 21 20 20 19 19 19 20 20 20 21 22 23 24 23 21 22 22 23 23 22 20 19 18 18 18 19 19 18 19 20 20 21 25 26 24 23 23 23 22 21 22 22 22 24 22
3 5 5 2 2 5 7 4 3 4 4 2 2 2 1 2 3 6 6 7 8 10 13 13 13 17 20 22 25 26 26 25 25 25 24 25 25 25 25 25 25 25 25 25 25 24 23 22 25 26 23 22 22 22 22 21 20 21 21 20 20 20 21 23 24 23 21 21 21 21 21 21 21 20 20 19 18 19 19 20 19 19 19 20 23 26 25 24 24 25 24 23 23 23 24 25 24
3 3 3 4 3 4 5 3 3 4 4 3 3 2 0 2 3 5 6 8 10 11 12 13 14 16 19 20 22 25 25 25 24 23 23 23 24 24 24 24 24 25 24 24 25 24 23 23 25 26 23 22 23 24 23 22 21 21 20 19 19 19 21 22 22 21 21 21 20 19 19 20 21 21 22 21 19 18 19 21 21 21 22 22 24 25 24 23 24 25 25 25 25 25 25 25 25
7 3 2 2 3 3 2 3 3 3 3 2 3 1 1 2 2 2 3 6 10 11 12 13 14 16 18 19 21 22 23 23 23 23 22 23 24 24 24 24 23 23 23 23 23 24 23 24 27 27 24 24 25 24 24 22 22 20 18 17 18 19 20 21 20 20 19 19 19 19 20 21 21 22 23 22 20 17 18 20 22 21 22 23 24 23 22 21 23 26 27 27 26 27 28 29 28
9 6 4 4 2 2 3 3 2 1 3 2 2 2 3 3 3 4 2 2 8 11 11 12 14 17 19 20 20 21 21 21 22 22 22 22 23 24 23 23 23 22 22 22 21 22 23 24 27 28 25 24 25 24 24 23 21 18 17 17 18 19 19 19 19 18 17 16 17 19 20 21 22 22 23 22 19 17 18 21 22 20 20 20 21 22 23 23 26 29 30 29 27 27 28 30 31
10 8 7 6 3 1 1 3 4 4 4 3 1 2 3 6 6 6 5 2 5 10 12 11 13 17 19 19 20 20 20 21 21 21 22 21 22 22 22 22 22 21 21 21 20 20 20 20 24 26 24 24 25 24 24 23 21 18 17 17 18 19 20 19 18 17 16 16 18 18 18 19 22 24 24 23 19 18 18 20 21 19 18 18 20 25 28 28 28 29 27 27 27 27 27 29 32
7 8 8 8 5 4 4 5 6 6 5 3 2 3 2 7 5 5 5 5 2 6 10 10 13 17 17 17 18 20 21 21 20 20 20 20 20 21 21 21 21 21 21 20 20 19 17 18 22 24 22 23 23 23 24 23 22 20 18 17 17 20 21 19 19 18 17 18 19 18 19 21 23 23 22 21 19 17 17 19 20 20 21 22 24 28 31 30 29 29 29 31 33 33 31 31 32
Wind_Direction
155 155 155 157 157 164 186 186 207 197 228 251 219 172 149 192 112 191 185 142 162 113 95 107 164 184 179 271 244 229 162 155 28 72 94 90 154 150 152 157 163 163 159 165 170 172 174 177 177 177 179 179 181 182 182 179 183 188 194 200 202 200 193 184 170 158 151 149 146 146 147 146 147 148 150 153 157 158 157 154 149 146 147 146 144 144 146 150 157 169 182 194 201 204 206 206 207
158 158 156 158 164 177 186 187 239 192 211 242 207 151 123 148 174 205 167 91 41 87 117 127 176 198 218 308 253 226 166 78 57 84 92 117 137 143 154 158 162 160 158 164 167 168 171 177 178 180 182 183 184 183 179 176 180 186 194 198 193 181 170 158 151 148 145 142 140 142 143 140 138 136 137 137 140 142 144 146 144 145 148 151 148 148 150 149 151 154 159 174 192 199 201 202 204
160 161 162 163 173 207 184 186 252 208 223 241 160 111 131 168 178 175 107 68 20 100 149 144 171 194 207 210 205 212 139 108 105 95 98 126 135 147 155 156 160 158 159 161 163 167 171 176 179 182 185 185 182 178 174 174 179 185 189 185 176 163 157 151 147 147 142 140 139 141 142 142 141 138 136 134 134 134 136 139 141 144 150 155 153 155 157 155 158 158 161 170 181 187 190 191 195
161 164 171 173 180 219 206 201 257 249 242 249 105 103 146 168 146 136 147 181 183 170 168 165 172 187 210 203 198 204 118 126 137 107 113 138 153 154 153 156 158 157 158 158 160 166 172 178 181 183 184 181 176 173 173 175 179 182 178 171 165 158 155 151 147 146 143 141 142 144 146 146 146 141 136 135 137 135 137 140 141 141 147 152 153 157 156 156 159 162 171 178 186 186 187 188 189
164 169 174 179 188 210 220 228 250 243 257 335 132 130 131 122 122 126 136 152 164 177 176 183 172 163 203 234 243 219 97 128 136 121 125 150 166 153 152 156 156 156 157 156 158 165 173 180 182 182 179 174 172 172 175 177 179 174 169 165 161 158 156 151 146 145 146 144 148 149 147 149 146 143 139 138 138 137 139 142 144 143 143 144 152 157 153 155 156 159 167 172 182 177 181 188 190
161 171 175 182 227 252 231 233 230 239 256 328 192 110 112 119 123 127 128 132 148 174 175 189 185 164 181 181 207 43 70 129 138 134 131 153 162 155 155 156 155 155 156 156 159 166 175 181 181 178 173 171 172 174 176 175 173 169 164 162 159 158 155 150 149 148 149 149 151 149 146 150 146 146 144 143 142 140 142 144 146 146 143 143 153 157 157 159 155 158 160 161 162 152 159 152 154
157 164 178 192 242 240 237 238 235 251 205 259 292 87 122 137 138 155 155 165 149 156 180 192 194 184 162 161 169 102 84 97 117 140 151 158 159 159 157 155 154 154 157 157 159 167 177 181 178 173 170 171 173 175 175 170 168 166 161 160 159 157 153 150 152 151 152 151 149 148 146 148 147 147 145 145 143 140 144 146 146 146 144 146 154 160 163 159 155 154 145 143 127 121 119 89 51
168 168 185 206 229 217 241 246 237 256 160 130 276 292 150 169 183 217 236 220 153 152 185 189 201 205 134 163 161 118 111 91 107 135 156 159 159 162 156 154 155 154 158 158 159 169 178 178 174 170 169 171 173 174 170 167 165 161 157 159 158 155 152 151 154 153 152 152 150 150 148 146 145 144 144 146 144 143 147 147 148 146 142 141 143 147 146 144 142 133 126 132 121 111 75 40 12
184 193 194 213 232 226 240 246 239 243 231 213 240 240 226 220 215 237 252 218 169 169 188 185 207 212 137 167 140 114 118 100 116 129 148 155 159 160 154 156 156 154 156 159 162 166 173 173 171 170 169 172 171 170 166 165 163 157 158 158 156 155 154 154 155 153 152 152 152 152 149 146 145 144 144 146 146 147 149 147 147 142 138 137 137 135 132 132 135 132 137 137 118 98 75 37 357
191 212 226 241 236 237 238 239 237 219 234 249 246 237 231 227 226 235 242 235 199 172 181 183 213 211 144 156 126 117 117 111 128 132 144 151 156 157 153 157 155 154 155 161 166 166 171 172 171 169 169 170 165 166 163 163 161 158 159 157 156 157 157 157 155 154 154 154 155 153 148 145 146 149 149 152 152 153 153 149 147 141 140 141 142 141 140 146 146 145 138 121 108 97 83 38 351
205 210 230 256 238 242 241 239 238 219 229 243 250 239 232 226 229 234 232 242 210 169 172 177 206 197 148 143 123 117 117 123 138 139 147 151 154 154 153 157 155 155 153 159 165 167 174 172 170 170 169 164 159 162 161 162 161 159 159 158 159 160 161 158 154 155 156 156 157 154 149 150 153 153 155 159 160 160 160 156 151 149 149 149 151 153 155 158 154 149 132 118 117 118 141 192 254
232 211 219 243 245 255 263 272 256 263 260 248 253 229 221 227 228 232 225 227 205 177 178 180 191 186 163 140 126 122 131 135 143 145 148 150 152 152 154 155 155 154 152 157 161 165 175 173 170 170 165 159 159 161 161 163 160 160 162 163 164 164 162 155 153 152 154 156 156 155 152 154 158 161 165 168 170 169 168 162 157 156 158 159 160 160 162 163 158 155 151 152 158 163 180 198 326
241 249 237 250 264 270 276 276 263 265 257 252 270 164 184 230 225 229 228 223 203 186 187 188 190 187 166 122 128 133 139 143 147 147 147 148 150 152 154 155 154 153 154 158 157 162 173 173 171 168 162 161 162 161 163 164 161 163 167 169 167 163 159 152 152 151 155 160 159 159 156 159 168 172 171 170 173 173 171 167 162 163 167 166 166 168 167 171 168 165 167 172 180 179 174 162 350
242 269 255 264 273 272 280 273 267 268 262 288 89 128 202 231 227 227 226 222 197 186 188 184 191 189 157 129 145 149 146 149 148 144 145 147 148 151 153 154 155 155 157 158 154 158 168 171 170 165 161 165 163 162 166 166 163 166 170 170 164 159 156 152 152 153 159 164 168 167 161 165 170 167 165 168 172 173 172 171 170 171 172 170 172 175 175 175 177 174 176 181 185 184 179 199 284
252 291 283 275 281 285 291 287 291 280 291 12 97 147 240 227 230 232 226 229 173 160 168 170 195 197 171 182 163 155 154 152 146 141 143 145 148 151 152 154 154 157 158 156 155 158 163 166 169 164 162 167 164 163 169 170 168 168 169 166 162 160 155 152 153 157 166 175 178 171 164 163 162 161 162 166 171 173 175 176 177 177 176 177 180 181 180 180 181 182 184 189 188 186 183 192 335
242 294 312 272 285 288 293 294 294 281 308 355 54 186 245 218 213 227 211 206 138 152 169 169 192 191 179 196 140 147 156 149 144 141 144 145 148 150 151 153 154 159 159 156 158 160 162 164 169 166 164 168 164 165 170 172 174 171 167 165 164 162 156 155 159 165 178 194 190 174 166 153 155 162 165 171 173 176 178 179 180 179 181 183 185 185 183 184 187 190 191 195 202 28 6 354 346
211 234 230 248 270 273 301 289 295 312 323 313 269 243 249 216 191 200 155 159 144 155 175 167 178 146 138 150 128 142 150 144 143 144 146 147 149 150 151 153 156 160 159 160 163 164 166 168 171 170 166 169 165 166 170 172 178 173 167 167 166 161 159 159 165 175 183 210 208 181 162 150 164 171 178 181 177 183 183 182 182 179 182 182 183 182 183 190 191 194 196 344 350 347 342 338 336
200 204 234 253 270 298 356 320 310 318 309 299 275 254 253 235 180 171 152 163 158 155 163 155 154 129 122 127 130 142 145 143 145 147 149 149 152 153 152 156 159 162 162 165 168 169 170 171 176 174 167 169 168 167 170 172 176 173 167 165 165 164 166 165 168 178 188 210 215 180 160 163 176 184 198 192 178 186 185 183 182 179 179 178 179 178 181 187 186 212 334 339 332 329 330 333 337
235 264 266 273 329 336 342 313 301 303 301 302 288 261 249 243 170 171 169 165 162 155 154 151 144 131 128 129 135 143 144 146 148 151 152 153 156 155 155 159 162 165 167 169 172 174 173 173 178 178 171 170 170 170 171 170 170 173 169 165 171 171 169 172 179 190 198 203 209 197 182 180 182 189 205 199 186 186 182 181 180 178 179 179 177 174 181 188 244 292 309 311 314 318 326 335 338
240 250 275 332 9 327 317 309 300 303 300 286 282 262 242 224 163 174 175 164 164 162 155 156 154 143 137 137 141 145 148 152 153 155 156 156 159 158 160 163 166 169 171 173 175 175 177 177 177 181 178 172 172 172 171 170 170 173 173 171 176 176 174 182 195 200 203 207 209 201 190 190 191 196 203 198 192 185 182 185 181 186 183 182 182 178 208 248 280 301 307 311 320 324 330 331 326
215 243 296 347 349 313 319 325 305 303 292 271 274 265 227 178 160 175 170 166 170 168 163 163 162 152 145 145 148 149 150 154 157 159 160 160 161 162 164 166 168 170 170 174 176 176 180 179 178 184 181 174 175 173 170 171 172 173 174 177 178 181 183 186 200 202 206 213 205 191 195 201 197 202 204 196 195 189 188 188 187 203 188 183 193 186 267 295 317 337 334 335 341 334 333 328 331
240 244 279 321 321 312 342 332 312 303 283 262 259 250 195 150 162 182 173 173 169 164 167 166 162 155 150 150 151 152 153 156 160 163 164 164 165 165 167 167 168 169 171 175 177 177 179 179 179 185 182 177 177 174 174 175 173 172 174 180 182 187 189 189 201 203 206 211 196 186 201 203 196 204 207 200 200 197 194 194 196 209 199 197 221 206 242 275 314 337 324 335 337 334 334 333 347
251 256 279 313 310 313 339 326 308 302 288 262 231 214 161 146 163 185 176 168 155 158 163 160 159 157 152 151 153 154 156 160 164 167 169 168 169 168 168 168 168 171 174 175 176 177 177 180 180 181 183 180 178 176 178 180 178 178 178 183 185 189 193 192 199 200 203 205 189 186 189 191 196 204 211 203 198 195 197 198 197 198 186 197 213 192 195 227 278 318 318 328 325 320 311 307 326
242 291 306 317 312 309 325 323 315 327 328 291 200 181 161 154 161 174 164 149 150 153 152 151 154 156 153 152 154 155 159 163 167 170 172 173 172 170 169 169 169 173 177 175 176 179 178 182 183 181 181 181 180 179 179 183 184 185 186 186 187 191 191 190 196 195 197 196 186 183 178 178 190 200 206 202 189 184 188 187 182 184 178 188 196 179 191 239 280 292 299 310 305 300 293 289 295
218 287 319 294 301 304 301 324 357 14 34 91 122 153 168 155 152 154 141 143 152 147 146 149 151 155 157 155 154 157 162 164 167 170 174 176 175 173 171 172 172 175 178 177 177 179 180 184 187 183 183 181 179 180 181 184 186 187 191 190 192 193 187 187 193 191 192 190 185 185 178 176 185 198 198 192 187 181 176 172 169 176 181 183 185 185 219 248 274 276 287 298 299 299 297 297 293
221 295 318 286 288 299 278 18 47 34 62 93 92 116 141 136 136 139 144 150 151 148 150 151 153 156 158 156 155 160 165 166 168 171 173 175 175 176 176 176 177 178 178 179 179 179 181 186 187 185 187 186 180 182 185 187 190 190 191 192 193 193 187 189 190 188 191 192 196 192 181 179 180 189 195 187 183 176 170 167 168 180 189 186 193 220 239 252 275 283 295 299 300 302 296 297 298
323 296 298 274 278 170 233 77 95 88 57 88 133 96 100 135 145 145 160 157 154 157 156 154 156 157 157 155 157 163 166 167 168 169 171 171 175 177 180 180 181 180 178 180 181 180 184 185 186 188 192 191 186 188 191 191 192 191 191 192 193 194 191 192 192 191 195 199 207 196 183 182 177 181 192 186 180 178 177 178 184 194 202 216 224 236 257 262 272 283 294 298 297 299 296 296 299
311 291 273 232 215 172 180 136 122 133 49 82 174 129 116 162 172 152 161 159 158 161 157 156 158 156 157 155 157 164 166 167 168 170 172 171 175 178 181 183 181 181 180 181 182 183 186 184 186 191 193 192 188 191 196 195 196 195 194 194 197 201 199 197 198 199 202 204 206 197 188 187 181 182 187 186 186 188 192 201 207 213 219 236 244 249 262 264 273 288 293 297 295 296 296 293 294
293 276 270 198 177 167 154 146 118 117 84 136 181 146 129 152 133 145 157 154 157 162 156 157 158 156 157 156 157 163 166 168 172 174 176 174 176 180 182 184 182 182 182 183 184 184 185 184 188 192 193 192 188 191 197 197 199 201 201 202 203 206 206 206 206 208 212 211 208 202 197 196 191 190 190 190 192 194 204 216 218 227 236 245 256 261 267 271 279 290 294 296 295 295 296 294 294
277 270 283 206 159 122 132 147 126 113 126 189 213 130 123 108 120 146 155 154 161 162 160 160 158 158 158 159 161 164 168 171 175 176 177 177 178 182 183 184 183 181 181 183 185 185 185 187 190 192 194 192 190 193 197 198 200 202 204 207 209 209 213 215 215 217 220 220 217 211 206 206 204 199 199 199 200 205 217 226 228 236 247 256 265 268 272 279 283 287 292 292 294 295 294 295 296
263 270 267 264 56 77 120 147 140 123 124 265 287 103 119 113 130 153 160 162 167 163 166 165 160 161 161 165 167 168 173 174 174 173 173 176 176 179 182 182 183 182 182 183 185 187 188 192 193 193 194 193 194 196 197 200 201 203 206 209 212 213 216 218 220 225 228 227 226 222 216 213 211 205 204 206 208 214 223 235 241 244 253 263 272 276 274 279 283 286 289 290 292 295 295 297 295
253 286 1 357 19 79 115 132 138 116 99 287 308 67 114 126 149 165 168 171 175 170 172 170 165 166 166 169 172 174 177 176 173 171 171 174 174 176 179 180 183 184 184 184 186 188 190 196 195 195 197 194 197 200 200 202 203 206 210 212 215 216 219 221 222 224 228 230 229 229 226 220 217 213 210 212 215 222 234 243 248 252 260 267 273 277 278 280 283 283 284 287 290 294 296 295 292
195 312 18 19 11 69 98 104 127 111 119 216 303 355 126 152 169 174 178 182 185 181 178 177 173 171 171 173 175 177 178 177 177 175 173 174 175 176 177 180 184 185 186 186 188 189 191 198 199 196 200 200 201 204 205 206 207 210 213 216 219 220 221 224 225 225 224 226 226 228 230 226 223 222 222 224 226 231 239 244 250 256 263 269 272 274 276 276 277 278 280 283 286 292 297 294 290
40 343 16 22 3 36 92 137 147 134 159 192 203 244 212 146 175 185 191 193 194 192 185 183 179 174 175 176 178 179 178 180 182 182 179 177 178 179 178 180 184 186 188 189 190 192 192 198 203 199 202 205 206 209 210 210 212 214 215 218 221 221 222 223 226 228 225 225 225 227 229 227 228 229 229 233 234 234 235 241 249 257 263 270 275 276 276 273 271 270 272 277 280 288 295 294 289
347 343 354 359 356 21 66 113 149 165 192 209 196 222 221 166 177 190 196 201 203 200 190 186 183 178 178 179 181 180 180 184 187 187 185 183 181 182 182 181 183 186 188 191 192 193 194 197 205 206 203 206 210 212 212 213 216 217 217 220 222 222 222 223 224 227 228 227 226 231 233 230 231 233 232 236 235 232 236 246 253 259 265 270 274 279 279 279 279 273 268 270 275 284 293 295 291
325 323 320 336 349 18 57 105 155 175 186 209 209 216 214 186 182 189 193 202 206 202 190 186 186 182 182 185 184 182 184 187 187 188 188 187 186 185 186 185 186 188 188 191 193 194 197 198 205 211 207 207 213 215 214 215 218 219 217 220 224 224 223 223 226 228 230 231 230 236 240 237 235 236 235 237 236 235 240 247 251 257 263 267 274 282 285 286 289 283 271 268 272 279 285 289 289
311 305 311 344 356 20 51 114 158 181 194 210 213 219 219 196 188 188 189 195 200 201 192 186 190 187 186 188 186 185 189 189 187 187 189 190 191 189 190 190 190 192 191 192 194 196 199 200 207 214 212 211 215 216 216 216 219 219 217 219 222 225 228 227 229 232 233 236 238 241 245 245 241 240 240 240 240 241 244 247 249 255 260 265 272 279 286 290 291 287 276 271 272 274 276 280 284
300 299 310 347 15 41 52 112 154 178 206 221 210 221 228 208 195 190 191 196 198 198 194 189 191 189 189 191 189 188 190 191 188 188 191 193 193 192 193 195 195 196 197 197 197 198 200 202 208 215 214 214 216 218 218 218 219 219 218 220 221 224 233 235 234 239 239 241 248 251 250 249 246 245 245 245 245 245 246 248 252 259 264 267 272 277 286 294 297 289 275 268 268 268 270 277 281
288 294 300 345 20 52 107 126 152 172 202 229 205 217 229 209 201 197 195 201 204 200 197 192 191 189 190 192 191 192 192 192 191 190 192 193 194 194 195 198 199 200 201 202 201 201 202 204 209 215 216 216 218 219 220 221 222 221 218 220 222 220 230 240 236 237 239 239 248 256 255 251 250 249 248 247 248 248 248 251 255 262 269 272 277 282 287 296 300 292 274 263 264 266 269 277 280
275 300 315 9 14 7 77 137 167 177 195 225 206 220 237 204 198 202 197 200 206 205 202 196 194 193 193 193 194 194 194 192 192 192 193 193 194 196 198 200 201 202 203 204 204 204 206 208 212 217 217 217 219 221 222 222 226 226 222 223 229 225 227 238 236 233 239 240 242 251 256 257 254 251 251 251 250 251 253 256 258 263 270 273 276 280 283 287 288 283 270 260 260 263 268 274 274
282 320 339 3 2 354 24 130 172 185 203 218 206 215 246 212 202 204 194 194 202 203 204 201 197 196 195 195 196 197 197 195 194 195 194 195 195 196 200 201 201 202 204 205 204 206 208 210 215 219 219 219 221 225 225 224 228 230 226 227 233 233 231 235 235 233 238 242 244 247 252 259 260 255 256 258 257 259 261 263 264 266 268 269 271 272 274 275 272 270 267 261 256 258 266 271 269
273 36 2 348 341 350 41 148 181 197 204 204 212 223 193 197 207 213 191 185 196 198 203 205 199 196 195 196 198 198 199 197 198 198 196 196 195 196 200 202 202 203 204 205 204 207 208 210 216 220 220 221 224 229 230 227 229 231 230 230 233 235 235 233 232 231 233 240 244 245 245 252 256 254 257 262 262 264 268 270 268 268 265 263 265 267 267 267 267 269 268 259 254 257 260 262 263
254 53 358 336 331 343 66 189 226 269 54 171 214 253 167 176 195 206 194 185 193 195 201 206 200 196 197 198 198 198 199 198 198 200 199 198 197 197 200 202 203 203 204 205 204 208 210 210 216 223 224 223 225 232 233 228 230 232 231 233 235 237 239 238 237 236 234 234 237 238 238 244 252 250 252 259 263 264 268 270 269 268 265 260 261 263 264 265 267 270 266 255 252 253 251 253 259
307 31 346 334 338 344 81 236 261 307 358 180 207 247 270 208 175 182 189 190 195 195 198 203 200 199 199 199 198 198 199 198 198 199 200 199 198 198 200 201 202 203 203 204 206 208 211 212 218 227 230 227 228 236 237 231 231 234 233 234 235 238 240 242 245 246 243 241 242 245 244 247 254 255 252 254 261 266 268 271 272 271 270 265 260 261 262 263 266 267 259 248 247 247 248 254 258
344 14 335 334 339 335 328 265 275 310 282 219 188 210 253 225 146 161 183 192 200 200 198 199 200 200 200 200 199 198 199 199 199 199 200 200 200 199 200 201 201 203 204 205 207 209 211 214 222 232 236 232 233 238 240 237 233 236 238 237 237 238 240 243 247 251 252 252 253 257 259 257 257 260 261 258 259 265 269 272 273 274 275 273 265 260 260 261 262 260 253 249 250 251 251 254 255
348 343 311 309 305 304 295 275 289 283 261 273 148 192 251 206 144 162 186 197 206 201 197 199 199 199 200 200 199 198 198 199 200 200 201 202 201 201 202 202 202 204 206 208 209 210 211 213 222 236 239 237 239 239 240 239 236 238 241 241 241 241 243 246 248 252 257 260 261 263 267 268 265 265 268 268 264 264 269 273 275 275 275 272 266 260 257 258 259 257 254 252 252 251 250 250 252
313 304 292 293 277 265 280 274 292 263 223 59 79 188 252 262 140 157 180 199 209 199 192 195 196 196 198 199 199 198 197 198 200 201 201 202 202 203 203 204 205 206 208 209 210 212 213 212 219 234 240 240 244 242 239 241 241 241 242 243 246 246 248 251 252 255 259 263 267 268 269 272 273 271 273 276 274 270 270 272 274 272 266 262 262 261 258 256 256 257 256 254 252 250 250 250 250
277 276 280 291 271 234 249 210 228 258 161 75 37 200 234 248 138 142 162 181 202 198 189 190 191 192 194 197 198 197 197 197 199 200 201 201 202 204 205 206 207 208 209 211 211 212 214 215 217 230 241 242 244 246 244 244 244 244 245 246 249 250 252 254 257 259 262 266 270 272 272 274 276 274 273 276 278 278 275 275 275 269 259 256 257 257 256 253 251 253 253 252 251 251 252 250 247
238 247 259 280 273 245 245 206 220 262 94 74 335 231 233 240 213 155 177 180 192 197 187 186 189 190 190 193 195 195 196 197 197 199 201 200 201 203 204 206 207 209 210 211 213 212 214 218 218 227 240 242 241 246 248 249 250 250 251 252 253 255 256 257 259 262 265 269 271 274 276 278 280 281 277 272 271 274 273 272 274 270 259 257 258 257 253 250 249 248 250 250 248 247 248 250 250
218 232 231 243 276 278 246 203 233 228 107 79 30 245 236 208 139 106 118 147 175 189 187 182 185 187 187 189 192 193 195 196 197 198 199 199 200 202 204 206 207 209 210 211 213 214 215 218 219 227 239 241 239 244 250 255 257 258 259 258 258 259 260 261 262 263 266 270 272 273 275 276 277 278 278 272 265 265 263 263 269 270 264 262 265 262 255 251 249 246 246 246 245 244 244 248 251
218 238 240 234 274 284 272 293 350 337 343 57 144 232 273 93 110 112 116 129 157 181 184 176 178 183 183 185 190 192 194 196 196 198 199 199 200 201 203 205 207 208 210 212 213 215 218 219 223 233 239 242 243 245 251 258 262 264 264 262 260 259 261 264 266 266 267 269 270 271 272 274 272 269 270 270 268 266 262 258 263 268 267 265 267 266 257 252 251 250 248 246 247 247 245 248 249
218 210 229 235 233 243 278 309 333 325 311 301 199 232 302 12 108 132 146 160 165 171 174 171 172 177 178 182 188 191 194 195 196 197 198 199 199 201 203 204 207 208 210 213 215 216 218 219 227 237 240 242 246 249 253 258 263 266 266 266 264 261 260 261 265 267 266 265 267 267 268 272 273 273 275 277 277 272 264 259 261 266 267 265 267 266 259 251 249 252 253 251 250 250 249 250 249
188 208 225 183 175 249 269 280 286 285 280 288 282 237 185 175 152 131 138 152 150 158 167 169 169 171 176 182 186 190 194 194 196 197 197 198 199 200 203 205 207 209 212 215 216 217 217 219 227 235 238 242 247 250 253 257 262 266 267 266 265 262 258 257 260 265 266 264 262 262 265 269 273 278 282 283 280 272 264 259 259 262 264 263 264 266 262 255 251 253 256 255 253 251 250 251 250
209 201 204 137 158 252 272 279 289 277 250 220 249 283 88 175 154 141 155 152 146 155 164 165 166 169 177 183 185 189 192 193 195 196 196 197 199 201 203 206 208 210 213 216 217 218 217 220 228 234 238 244 247 248 250 255 262 265 264 261 260 259 257 255 258 262 264 264 264 266 270 273 276 281 285 287 282 271 262 261 263 264 264 262 262 263 262 258 256 257 259 258 257 257 254 252 251
240 246 249 202 204 201 197 255 276 274 265 199 175 216 231 182 126 122 163 151 147 159 166 166 170 174 179 183 184 186 189 191 193 194 196 197 199 202 203 206 208 210 212 214 216 218 218 223 231 236 240 246 248 247 247 252 260 263 260 258 258 256 254 253 257 260 262 264 266 270 275 279 284 286 287 289 284 269 257 259 267 270 268 265 262 261 261 260 260 261 263 263 262 263 263 261 258
235 263 249 236 254 180 174 254 259 240 284 269 157 178 161 117 34 8 3 136 148 161 175 176 174 177 180 180 181 182 183 187 190 192 196 197 199 202 203 205 207 208 211 213 214 217 217 224 234 238 239 244 246 245 246 249 256 259 257 258 258 256 254 251 255 261 264 266 267 270 275 279 284 286 287 288 282 266 256 259 266 268 267 263 258 257 256 256 261 265 268 269 265 263 264 265 265
205 229 225 213 221 204 193 260 245 231 261 286 298 226 122 77 24 355 346 326 160 171 183 182 178 180 179 177 176 175 177 183 187 190 193 195 197 201 202 204 207 207 211 212 213 217 215 219 234 238 237 240 243 244 244 247 253 257 257 258 256 256 257 256 258 264 268 270 270 270 269 273 280 283 284 283 274 262 258 261 263 265 266 262 257 257 258 259 263 265 268 273 276 274 269 266 266
210 212 221 219 211 217 222 226 232 239 251 262 274 257 90 64 33 14 353 326 273 193 185 180 185 180 172 171 168 168 173 179 183 187 190 192 193 197 198 200 203 205 208 211 211 215 212 214 230 238 235 237 242 243 245 247 253 258 260 260 256 255 260 264 265 267 270 271 271 270 271 276 279 278 277 275 266 260 259 261 263 269 272 270 266 267 269 268 265 262 264 272 279 282 279 274 270